When you browse on this site, cookies collect data to enhance your experience and personalize the content and advertising you see.
Visit our Privacy Policy to learn more. By continuing to use the site, you agree to this use of cookies and data.
  • In Portugal
  • List of Countries
  • For 7 days
  • Water Temperature
  • Satellite Maps
  • Weather Map
  • Weather Widgets
  • user-avatar
    Login

    Hourly Weather Kornele

    Today, 24 February, Sunday

    Time Temperature Precipitation Wind Pressure Humidity
    00:00 -4°C° 0 mm 3 mps 768 mmHg 51%
    01:00 -4°C° 0 mm 3 mps 768 mmHg 51%
    02:00 -4°C° 0.1 mm 3 mps 768 mmHg 58%
    03:00 -4°C° 0.1 mm 3 mps 767 mmHg 64%
    04:00 -4°C° 0.1 mm 4 mps 767 mmHg 70%
    05:00 -4°C° 0 mm 3 mps 767 mmHg 70%
    06:00 -4°C° 0 mm 3 mps 767 mmHg 70%
    07:00 -4°C° 0 mm 3 mps 766 mmHg 70%
    08:00 -1°C° 0 mm 3 mps 766 mmHg 67%
    09:00 0°C° 0 mm 3 mps 766 mmHg 63%
    10:00 +1°C° 0 mm 3 mps 766 mmHg 60%
    11:00 +2°C° 0 mm 3 mps 766 mmHg 60%
    12:00 +3°C° 0 mm 3 mps 766 mmHg 60%
    13:00 +4°C° 0 mm 3 mps 766 mmHg 60%
    14:00 +4°C° 0 mm 3 mps 766 mmHg 63%
    15:00 +5°C° 0 mm 2 mps 765 mmHg 66%
    16:00 +4°C° 0 mm 2 mps 765 mmHg 70%
    17:00 +3°C° 0 mm 2 mps 765 mmHg 72%
    18:00 +2°C° 0 mm 2 mps 765 mmHg 73%
    19:00 0°C° 0 mm 3 mps 765 mmHg 75%
    20:00 0°C° 0 mm 3 mps 764 mmHg 76%
    21:00 0°C° 0 mm 3 mps 764 mmHg 77%
    22:00 0°C° 0 mm 3 mps 764 mmHg 77%
    23:00 0°C° 0 mm 3 mps 764 mmHg 82%

    Tomorrow, 25 February, Monday

    Time Temperature Precipitation Wind Pressure Humidity
    00:00 0°C° 0 mm 3 mps 764 mmHg 87%
    01:00 0°C° 0 mm 3 mps 764 mmHg 92%
    02:00 0°C° 0 mm 3 mps 764 mmHg 94%
    03:00 0°C° 0 mm 3 mps 764 mmHg 96%
    04:00 0°C° 0 mm 3 mps 764 mmHg 97%
    05:00 +1°C° 0 mm 2 mps 764 mmHg 97%
    06:00 +2°C° 0 mm 2 mps 764 mmHg 97%
    07:00 +2°C° 0 mm 2 mps 764 mmHg 98%
    08:00 +2°C° 0 mm 2 mps 764 mmHg 96%
    09:00 +2°C° 0 mm 3 mps 764 mmHg 94%
    10:00 +3°C° 0 mm 3 mps 764 mmHg 92%
    11:00 +3°C° 0 mm 3 mps 764 mmHg 91%
    12:00 +4°C° 0 mm 3 mps 764 mmHg 90%
    13:00 +4°C° 0 mm 3 mps 764 mmHg 88%
    14:00 +4°C° 0 mm 3 mps 764 mmHg 88%
    15:00 +4°C° 0 mm 3 mps 764 mmHg 88%
    16:00 +4°C° 0 mm 3 mps 763 mmHg 88%
    17:00 +3°C° 0 mm 3 mps 763 mmHg 90%
    18:00 +2°C° 0 mm 3 mps 763 mmHg 91%
    19:00 +1°C° 0 mm 2 mps 763 mmHg 92%
    20:00 +1°C° 0 mm 2 mps 763 mmHg 92%
    21:00 +1°C° 0 mm 2 mps 763 mmHg 92%
    22:00 -1°C° 0 mm 2 mps 763 mmHg 93%
    23:00 -1°C° 0 mm 2 mps 762 mmHg 93%

    Day after tomorrow, 26 February, Tuesday

    Time Temperature Precipitation Wind Pressure Humidity
    00:00 -1°C° 0 mm 2 mps 762 mmHg 92%
    01:00 -1°C° 0 mm 2 mps 762 mmHg 92%
    02:00 +1°C° 0 mm 2 mps 761 mmHg 93%
    03:00 +1°C° 0 mm 2 mps 761 mmHg 95%
    04:00 +1°C° 0 mm 2 mps 760 mmHg 96%
    05:00 +1°C° 0 mm 3 mps 760 mmHg 96%
    06:00 +1°C° 0 mm 3 mps 760 mmHg 96%
    07:00 +2°C° 0 mm 3 mps 759 mmHg 97%
    08:00 +3°C° 0 mm 4 mps 760 mmHg 94%
    09:00 +3°C° 0 mm 4 mps 760 mmHg 91%
    10:00 +4°C° 0 mm 4 mps 760 mmHg 88%
    11:00 +3°C° 0 mm 5 mps 760 mmHg 83%
    12:00 +5°C° 0 mm 5 mps 760 mmHg 77%
    13:00 +6°C° 0 mm 5 mps 760 mmHg 72%
    14:00 +5°C° 0 mm 5 mps 760 mmHg 74%
    15:00 +5°C° 0 mm 5 mps 760 mmHg 76%
    16:00 +3°C° 0 mm 5 mps 760 mmHg 78%
    17:00 +3°C° 0 mm 4 mps 761 mmHg 82%
    18:00 +2°C° 0 mm 3 mps 761 mmHg 86%
    19:00 +1°C° 0 mm 3 mps 761 mmHg 91%
    20:00 +1°C° 0 mm 3 mps 761 mmHg 91%
    21:00 +2°C° 0 mm 2 mps 761 mmHg 92%
    22:00 +1°C° 0 mm 2 mps 761 mmHg 92%
    23:00 +1°C° 0 mm 2 mps 761 mmHg 91%

    27 February, Wednesday

    Time Temperature Precipitation Wind Pressure Humidity
    00:00 +1°C° 0 mm 2 mps 761 mmHg 91%
    01:00 +2°C° 0 mm 1 mps 761 mmHg 90%
    02:00 +2°C° 0 mm 1 mps 761 mmHg 89%
    03:00 +1°C° 0 mm 2 mps 761 mmHg 88%
    04:00 +1°C° 0 mm 2 mps 760 mmHg 88%
    05:00 +1°C° 0 mm 2 mps 760 mmHg 88%
    06:00 +1°C° 0 mm 2 mps 760 mmHg 88%
    07:00 0°C° 0 mm 3 mps 760 mmHg 88%
    08:00 +1°C° 0 mm 3 mps 759 mmHg 85%
    09:00 +3°C° 0 mm 3 mps 759 mmHg 82%
    10:00 +4°C° 0 mm 3 mps 759 mmHg 79%
    11:00 +6°C° 0 mm 4 mps 758 mmHg 76%
    12:00 +7°C° 0 mm 4 mps 758 mmHg 73%
    13:00 +8°C° 0 mm 4 mps 757 mmHg 69%
    14:00 +9°C° 0 mm 3 mps 757 mmHg 71%
    15:00 +9°C° 0 mm 3 mps 756 mmHg 72%
    16:00 +8°C° 0 mm 3 mps 756 mmHg 73%
    17:00 +7°C° 0 mm 3 mps 755 mmHg 76%
    18:00 +5°C° 0 mm 3 mps 755 mmHg 79%
    19:00 +4°C° 0 mm 3 mps 755 mmHg 82%
    20:00 +3°C° 0 mm 3 mps 754 mmHg 84%
    21:00 +3°C° 0 mm 3 mps 754 mmHg 85%
    22:00 +2°C° 0 mm 3 mps 753 mmHg 87%
    23:00 +2°C° 0 mm 3 mps 753 mmHg 87%

    28 February, Thursday

    Time Temperature Precipitation Wind Pressure Humidity
    00:00 +2°C° 0 mm 3 mps 752 mmHg 88%
    01:00 +2°C° 0 mm 3 mps 752 mmHg 89%
    02:00 +2°C° 0 mm 3 mps 751 mmHg 89%
    03:00 +1°C° 0 mm 4 mps 750 mmHg 89%
    04:00 +1°C° 0 mm 4 mps 750 mmHg 89%
    05:00 +1°C° 0 mm 4 mps 749 mmHg 89%
    06:00 +1°C° 0 mm 4 mps 749 mmHg 89%
    07:00 +1°C° 0 mm 4 mps 748 mmHg 89%
    08:00 +3°C° 0 mm 5 mps 748 mmHg 83%
    09:00 +4°C° 0 mm 6 mps 748 mmHg 76%
    10:00 +7°C° 0 mm 6 mps 747 mmHg 69%
    11:00 +6°C° 0 mm 7 mps 747 mmHg 69%
    12:00 +6°C° 0 mm 7 mps 747 mmHg 69%
    13:00 +8°C° 0 mm 7 mps 747 mmHg 69%
    14:00 +6°C° 0 mm 7 mps 747 mmHg 71%
    15:00 +5°C° 0 mm 7 mps 748 mmHg 72%
    16:00 +4°C° 0 mm 6 mps 748 mmHg 74%
    17:00 +3°C° 0 mm 5 mps 748 mmHg 78%
    18:00 +3°C° 0 mm 4 mps 749 mmHg 82%
    19:00 +3°C° 0 mm 3 mps 749 mmHg 85%
    20:00 +2°C° 0 mm 3 mps 749 mmHg 87%
    21:00 +2°C° 0 mm 3 mps 750 mmHg 89%
    22:00 +1°C° 0 mm 3 mps 750 mmHg 91%
    23:00 +1°C° 0 mm 3 mps 750 mmHg 91%

    1 March, Friday

    Time Temperature Precipitation Wind Pressure Humidity
    00:00 +1°C° 0 mm 3 mps 750 mmHg 91%
    01:00 +1°C° 0 mm 3 mps 750 mmHg 91%
    02:00 0°C° 0 mm 3 mps 750 mmHg 89%
    03:00 0°C° 0 mm 3 mps 750 mmHg 88%
    04:00 0°C° 0 mm 3 mps 751 mmHg 86%
    05:00 0°C° 0 mm 3 mps 751 mmHg 87%
    06:00 0°C° 0 mm 3 mps 751 mmHg 88%
    07:00 0°C° 0 mm 3 mps 752 mmHg 89%
    08:00 0°C° 0 mm 4 mps 752 mmHg 80%
    09:00 +1°C° 0 mm 4 mps 752 mmHg 72%
    10:00 +2°C° 0 mm 5 mps 753 mmHg 64%
    11:00 +2°C° 0 mm 5 mps 753 mmHg 62%
    12:00 +2°C° 0 mm 5 mps 754 mmHg 61%
    13:00 +2°C° 0 mm 5 mps 754 mmHg 59%
    14:00 +2°C° 0 mm 5 mps 754 mmHg 61%
    15:00 +1°C° 0 mm 5 mps 754 mmHg 64%
    16:00 +1°C° 0 mm 5 mps 754 mmHg 66%
    17:00 0°C° 0 mm 4 mps 755 mmHg 72%
    18:00 -1°C° 0 mm 4 mps 755 mmHg 77%
    19:00 -1°C° 0 mm 3 mps 756 mmHg 82%
    20:00 -1°C° 0 mm 3 mps 756 mmHg 83%
    21:00 -1°C° 0 mm 3 mps 756 mmHg 83%
    22:00 -1°C° 0 mm 2 mps 757 mmHg 84%
    23:00 -1°C° 0 mm 2 mps 757 mmHg 83%
    Show more